[[{"header":{"parameterUnit":"m.s-1","parameterCategory":1,"la1":30.2991,"la2":30.254,"lo1":-89.0895,"lo2":-89.0444,"dy":0.0017,"dx":0.0017,"nx":28,"ny":28,"refTime":"2025-06-04T03:00:00:Z","depth":0,"parameterNumber":2,"parameterNumberName":"U-component_of_WINDS"},"data":[0,0,0,0,0,0,0,0,0,0,0,0,0,0,0,0,0,0,0,0,0,0,0,0,0,0,0,0,0,0,0,0,0,0,0,0,0,0,0,0,0,0,0,0,0,0,0,0,0,0,0,0,0,0,0,0,0,0,0.5764,0.5765,0,0.5853,0.5854,0.5856,0.5881,0.588,0.588,0.5879,0.5972,0.5975,0.5977,0,0,0,0,0,0,0,0,0,0,0,0,0,0.5614,0.5617,0.5764,0.5765,0.5766,0.5853,0.5855,0.5856,0.5881,0.588,0.588,0.5879,0.5971,0.5974,0.5978,0,0,0,0,0,0,0,0,0,0,0,0,0,0.5689,0.5618,0.5764,0.5789,0.5792,0.5853,0.5855,0.5856,0.5881,0.588,0.588,0.5879,0.597,0.5974,0.5978,0.602,0,0,0.5992,0.5993,0,0,0,0,0,0,0,0,0.5685,0.5695,0.5784,0.5787,0.5791,0.5855,0.5836,0.5911,0.5881,0.5847,0.5879,0.5879,0.5934,0.5941,0.5959,0.6024,0.6028,0.5992,0.5995,0.5996,0.5998,0,0,0,0,0,0,0,0.568,0.5691,0.5799,0.5786,0.579,0.5796,0.5806,0.585,0.5894,0.585,0.5852,0.5863,0.5935,0.5955,0.5962,0.603,0.5992,0.5996,0.5998,0.6,0.6133,0.6134,0,0,0,0,0,0,0.567,0.5686,0.5796,0.5802,0.5735,0.5799,0.581,0.5835,0.5893,0.5901,0.5863,0.5863,0.5948,0.5957,0.5965,0.6017,0.5996,0.6001,0.6003,0.6132,0.6133,0.6134,0,0,0,0,0,0,0.5667,0.568,0.5793,0.5745,0.576,0.5803,0.5831,0.5838,0.5857,0.5903,0.5911,0.5875,0.5948,0.5959,0.6006,0.6021,0.6002,0.6006,0.6131,0.6133,0.6134,0.6123,0,0,0,0,0,0,0.5662,0.5678,0.5695,0.5745,0.5762,0.5832,0.5832,0.584,0.5865,0.5866,0.5916,0.5924,0.5948,0.5999,0.601,0.6027,0.601,0.613,0.6132,0.6133,0.6122,0.6124,0.6125,0,0,0,0,0,0.5657,0.5688,0.5695,0.5708,0.5783,0.5833,0.5843,0.587,0.5866,0.5883,0.5912,0.5922,0.6018,0.6004,0.6017,0.6034,0.6129,0.6131,0.6133,0.6121,0.6123,0.6125,0,0,0,0,0,0,0.5638,0.5695,0.5704,0.5752,0.5788,0.5837,0.5859,0.5871,0.5908,0.5908,0.594,0.5951,0.5996,0.602,0.6004,0.6078,0.6074,0.6078,0.606,0.6062,0.6064,0.6057,0.6014,0,0,0,0,0,0.564,0.5676,0.5723,0.5761,0.5779,0.5816,0.5838,0.5856,0.5894,0.5909,0.5942,0.5978,0.6016,0.6041,0.6079,0.6126,0.6137,0.6144,0.6146,0.6147,0.615,0.6176,0.618,0.6141,0.6141,0.6141,0,0,0.5644,0.5679,0.5699,0.5758,0.5788,0.5824,0.5828,0.5866,0.5893,0.5915,0.5961,0.5986,0.6029,0.6076,0.6099,0.6098,0.6163,0.6149,0.615,0.6153,0.6179,0.6183,0.6186,0.6142,0.6142,0.6142,0,0,0.5668,0.5699,0.5734,0.5763,0.5808,0.5832,0.584,0.5889,0.5906,0.5953,0.597,0.6003,0.6068,0.6097,0.6121,0.6157,0.6168,0.6168,0.6176,0.6201,0.6204,0.6207,0.6219,0.6223,0.6172,0.6172,0.6172,0,0.5667,0.5722,0.575,0.5787,0.5813,0.5834,0.5869,0.5897,0.5951,0.5968,0.5966,0.6048,0.6079,0.6133,0.6141,0.616,0.617,0.6162,0.6201,0.6205,0.6208,0.622,0.6224,0.6171,0.6171,0.6171,0.6171,0,0.5718,0.5756,0.5779,0.5831,0.5859,0.5895,0.5928,0.5953,0.5968,0.5993,0.604,0.6077,0.6123,0.6137,0.6152,0.6193,0.6191,0.6195,0.6192,0.6211,0.6223,0.6228,0.6171,0.6171,0.6171,0.6171,0,0,0.5733,0.58,0.5808,0.5832,0.5883,0.5912,0.5949,0.5994,0.6014,0.6051,0.6083,0.6137,0.6141,0.6168,0.6187,0.6209,0.6234,0.621,0.6211,0.6213,0.6281,0.6278,0.6282,0.6242,0.6243,0.6244,0.6277,0,0.5764,0.5831,0.5857,0.5912,0.5947,0.5967,0.6,0.6034,0.6058,0.6091,0.6118,0.6156,0.6158,0.6174,0.6197,0.6226,0.6248,0.6224,0.6271,0.6273,0.6259,0.6289,0.6285,0.6315,0.6282,0.6283,0.6284,0,0.5809,0.5846,0.5904,0.595,0.5966,0.5994,0.6037,0.6068,0.6108,0.6124,0.6153,0.6171,0.621,0.6204,0.6259,0.6242,0.6263,0.628,0.6281,0.6287,0.6279,0.6294,0.6326,0.633,0.6291,0.6291,0.629,0,0.5813,0.5878,0.5921,0.5941,0.5996,0.6015,0.6039,0.6078,0.6103,0.614,0.6156,0.6197,0.622,0.6252,0.628,0.6273,0.6331,0.6328,0.6345,0.6345,0.6357,0.6355,0.6391,0.6371,0.6371,0.637,0.637,0,0.5845,0.5879,0.5924,0.595,0.5989,0.6019,0.6057,0.6082,0.6116,0.6148,0.6168,0.6197,0.6233,0.6267,0.6289,0.633,0.6341,0.6354,0.636,0.6352,0.635,0.6366,0.6365,0.6372,0.6371,0.6371,0.6371,0,0.5856,0.5887,0.5935,0.5984,0.5997,0.6023,0.6065,0.6091,0.6116,0.6155,0.6166,0.6205,0.6246,0.6277,0.633,0.6345,0.6389,0.6395,0.6375,0.6378,0.6394,0.6392,0.6441,0.6448,0.6423,0.6423,0.6423,0,0.5874,0.5901,0.5952,0.5974,0.5998,0.6034,0.606,0.609,0.6116,0.6163,0.6183,0.6225,0.6261,0.6324,0.6357,0.6398,0.6405,0.6419,0.6411,0.6403,0.6405,0.6402,0.6405,0.642,0.642,0.642,0.642,0,0.5901,0.5916,0.5951,0.5993,0.6023,0.6057,0.6091,0.6108,0.6145,0.6173,0.6215,0.6242,0.6296,0.6337,0.6381,0.6405,0.6419,0.6423,0.6429,0.6421,0.6409,0.6415,0.6378,0.6421,0.6421,0.6421,0.6421,0.6421,0.5916,0.5941,0.5981,0.602,0.6049,0.6081,0.6108,0.6136,0.6172,0.6218,0.6234,0.6277,0.6316,0.6376,0.6401,0.6434,0.6435,0.6444,0.6446,0.6448,0.6447,0.6403,0.6443,0.6443,0.6443,0.6443,0.6443,0,0.5944,0.5971,0.6007,0.6055,0.6086,0.6096,0.6135,0.616,0.6197,0.6232,0.6266,0.6314,0.6354,0.6391,0.6432,0.6452,0.646,0.6462,0.6461,0.6466,0.6444,0.6435,0.6456,0.6456,0.6456,0.6456,0.6456,0.6456,0.5963,0.6005,0.6024,0.6081,0.6108,0.615,0.6171,0.62,0.6229,0.6281,0.6314,0.6338,0.6373,0.6418,0.6455,0.6465,0.6479,0.648,0.6491,0.647,0.6468,0.6466,0.6457,0.6483,0.6483,0.6511,0.6511,0.6511]},{"header":{"parameterUnit":"m.s-1","parameterCategory":1,"la1":30.2991,"la2":30.254,"lo1":-89.0895,"lo2":-89.0444,"dy":0.0017,"dx":0.0017,"nx":28,"ny":28,"refTime":"2025-06-04T03:00:00:Z","depth":0,"parameterNumber":3,"parameterNumberName":"V-component_of_WINDS"},"data":[0,0,0,0,0,0,0,0,0,0,0,0,0,0,0,0,0,0,0,0,0,0,0,0,0,0,0,0,0,0,0,0,0,0,0,0,0,0,0,0,0,0,0,0,0,0,0,0,0,0,0,0,0,0,0,0,0,0,4.6967,4.6966,0,4.6925,4.6924,4.6924,4.6852,4.6851,4.685,4.6849,4.6806,4.6806,4.6806,0,0,0,0,0,0,0,0,0,0,0,0,0,4.6987,4.6987,4.6967,4.6966,4.6966,4.6925,4.6924,4.6924,4.6853,4.6851,4.6849,4.6848,4.6806,4.6806,4.6806,0,0,0,0,0,0,0,0,0,0,0,0,0,4.6965,4.6987,4.6967,4.6925,4.6921,4.6925,4.6924,4.6924,4.6853,4.6851,4.6849,4.6847,4.6806,4.6806,4.6806,4.6847,0,0,4.6806,4.6806,0,0,0,0,0,0,0,0,4.6966,4.6964,4.6932,4.6928,4.6924,4.6892,4.6915,4.6898,4.6854,4.6879,4.6848,4.6846,4.6836,4.6834,4.683,4.6845,4.6843,4.6806,4.6807,4.6807,4.6807,0,0,0,0,0,0,0,4.6968,4.6966,4.695,4.6932,4.6927,4.6909,4.6904,4.6912,4.6869,4.6877,4.6871,4.6867,4.6833,4.683,4.6829,4.6842,4.6806,4.6807,4.6807,4.6807,4.6889,4.6891,0,0,0,0,0,0,4.6975,4.6967,4.6951,4.6949,4.694,4.6911,4.6905,4.6904,4.6869,4.6862,4.6869,4.6864,4.6831,4.6828,4.6827,4.6872,4.6807,4.6807,4.6807,4.6887,4.689,4.6892,0,0,0,0,0,0,4.6976,4.6974,4.6953,4.6957,4.6953,4.6912,4.6912,4.6904,4.6901,4.6863,4.6855,4.6873,4.6829,4.6827,4.6842,4.687,4.6807,4.6807,4.6885,4.6888,4.6891,4.6964,0,0,0,0,0,0,4.6977,4.6975,4.699,4.6957,4.6953,4.697,4.6914,4.6905,4.6901,4.6894,4.6865,4.6858,4.6827,4.6843,4.6843,4.6869,4.6807,4.6882,4.6886,4.689,4.6959,4.6969,4.6978,0,0,0,0,0,4.6978,4.7012,4.6991,4.699,4.697,4.6971,4.6968,4.6932,4.6904,4.6918,4.6894,4.6859,4.6867,4.6845,4.6844,4.6871,4.688,4.6885,4.6889,4.6955,4.6967,4.6978,0,0,0,0,0,0,4.7049,4.7007,4.6983,4.7008,4.6994,4.6959,4.6976,4.6946,4.694,4.6934,4.6889,4.6883,4.6905,4.6889,4.6865,4.6909,4.6868,4.6873,4.6918,4.693,4.6939,4.6942,4.6807,0,0,0,0,0,4.7067,4.7071,4.7035,4.706,4.7055,4.7017,4.7016,4.6989,4.6973,4.6966,4.6943,4.6929,4.6928,4.6928,4.6925,4.6957,4.6949,4.6975,4.6985,4.6993,4.6997,4.7013,4.7024,4.6907,4.6907,4.6907,0,0,4.7106,4.7084,4.7089,4.7074,4.706,4.7065,4.7012,4.702,4.7024,4.6967,4.6981,4.6964,4.6945,4.6969,4.6978,4.6957,4.7028,4.6999,4.7005,4.7005,4.7019,4.703,4.704,4.6911,4.691,4.691,0,0,4.7178,4.7162,4.7181,4.7168,4.7148,4.7123,4.7128,4.7098,4.7084,4.7097,4.7055,4.7059,4.7058,4.7046,4.704,4.711,4.7078,4.711,4.716,4.7176,4.7185,4.7193,4.7218,4.7228,4.7115,4.7115,4.7115,0,4.7228,4.7235,4.7195,4.7206,4.7201,4.7151,4.717,4.716,4.7139,4.7137,4.7113,4.7112,4.7095,4.7116,4.7133,4.713,4.7135,4.7113,4.7187,4.7195,4.7202,4.7225,4.7234,4.7119,4.7119,4.7119,4.7118,0,4.7297,4.7303,4.7321,4.7302,4.73,4.7315,4.7278,4.728,4.7254,4.7232,4.7247,4.7225,4.7217,4.722,4.7195,4.7238,4.7225,4.7195,4.7153,4.7218,4.7238,4.7247,4.7125,4.7124,4.7123,4.7122,0,0,4.7412,4.7373,4.738,4.7371,4.7345,4.7348,4.7362,4.7354,4.7357,4.7345,4.7355,4.7356,4.7328,4.7322,4.7295,4.7309,4.7366,4.7277,4.7276,4.7294,4.7412,4.7435,4.7445,4.7345,4.7346,4.7347,4.7414,0,4.7479,4.7499,4.7464,4.7493,4.7497,4.745,4.7462,4.7447,4.7427,4.7429,4.7406,4.7408,4.7371,4.7367,4.7379,4.7356,4.7389,4.7351,4.7354,4.7354,4.7359,4.7456,4.748,4.7543,4.7422,4.7423,4.7424,0,4.7559,4.7551,4.758,4.7552,4.7553,4.7564,4.7555,4.7556,4.7539,4.7524,4.7517,4.7485,4.7497,4.7457,4.7473,4.7448,4.7447,4.7437,4.7438,4.7436,4.7393,4.7457,4.7563,4.7572,4.7437,4.7436,4.7435,0,4.7639,4.7636,4.7653,4.7647,4.7615,4.7625,4.7612,4.7593,4.7591,4.7583,4.7581,4.7575,4.7572,4.7568,4.7535,4.7509,4.7555,4.7512,4.7543,4.7544,4.7553,4.7553,4.7661,4.7554,4.7554,4.7554,4.7554,0,4.7717,4.7736,4.7688,4.7699,4.7719,4.768,4.7702,4.7685,4.7669,4.7675,4.7634,4.7642,4.7599,4.7601,4.7576,4.7593,4.7592,4.758,4.7573,4.7583,4.7585,4.7581,4.7576,4.7556,4.7556,4.7555,4.7555,0,4.781,4.7778,4.7794,4.7763,4.7756,4.7773,4.7747,4.7755,4.7733,4.7742,4.7742,4.7708,4.7709,4.7676,4.7671,4.7654,4.7682,4.7667,4.7687,4.7683,4.7715,4.7712,4.7823,4.7836,4.7722,4.7723,4.7724,0,4.7861,4.7874,4.7846,4.7847,4.7837,4.784,4.7837,4.78,4.7799,4.7782,4.7793,4.7791,4.7787,4.7791,4.7765,4.7761,4.7746,4.7785,4.7745,4.7755,4.7746,4.7746,4.7747,4.7793,4.7795,4.7796,4.7797,0,4.7955,4.7939,4.7937,4.7931,4.7929,4.7922,4.7912,4.7916,4.7875,4.7877,4.7877,4.7874,4.7869,4.7868,4.7859,4.7846,4.7815,4.781,4.7817,4.7827,4.7838,4.7833,4.771,4.7807,4.7806,4.7806,4.7805,4.7805,4.8028,4.8038,4.802,4.802,4.8009,4.8001,4.8007,4.7987,4.7986,4.7979,4.7957,4.7962,4.7945,4.793,4.7921,4.7924,4.7905,4.7914,4.7917,4.792,4.7926,4.7839,4.7922,4.7922,4.7922,4.7922,4.7921,0,4.812,4.8106,4.8106,4.8094,4.8094,4.8065,4.8053,4.8055,4.806,4.8047,4.8044,4.8045,4.8044,4.8019,4.8015,4.8022,4.8008,4.8023,4.8021,4.8019,4.7943,4.7938,4.8034,4.8034,4.8034,4.8034,4.8034,4.8034,4.8168,4.8184,4.8166,4.8176,4.8162,4.8166,4.8162,4.8155,4.8145,4.8148,4.8147,4.813,4.8113,4.8107,4.8105,4.8098,4.8098,4.8118,4.8106,4.8035,4.8024,4.8014,4.8008,4.8118,4.8118,4.8181,4.8181,4.8182]}]]